User: anonymous   Login
Location: Brabourne
(51.1333°N, 1.0000°E)
Time: 11:49:33
(UTC+00:00)
Language:

BREEZE-M R/B - Orbit

View from above orbital plane
View from above orbital plane
View from above satellite
View from above satellite

Ground track
Ground track

The orbit data is extracted from the following two-line orbital elements,

1 32709U 08011B   21265.63772916  .00000497  00000-0  31665-2 0  9991
2 32709  48.8580 212.1652 6514880  84.5060  50.5998  3.07813620 92917
Epoch (UTC): 22 September 2021 15:18:19
Eccentricity: 0.6514880
inclination: 48.8580°
perigee height: 579 km
apogee height: 26589 km
right ascension of ascending node: 212.1652°
argument of perigee: 84.5060°
revolutions per day: 3.07813620
mean anomaly at epoch: 50.5998°
orbit number at epoch: 9291

The dashed part of the orbit path shows where the satellite is in the earth's shadow,  

DLR